Weather History for KCKC - January, 2013

Change the Weather History Date:

Tuesday, January 15, 2013

  Actual Average Record
Temperature  
Mean Temperature 7 °F -  
Max Temperature 19 °F 13 °F 28 °F (2015)
Min Temperature -5 °F 0 °F -23 °F (2009)
Degree Days  
Heating Degree Days 58    
Moisture  
Dew Point 2 °F    
Average Humidity 70    
Maximum Humidity 85    
Minimum Humidity 45    
Precipitation  
Precipitation 0.00 in - - ()
Sea Level Pressure  
Sea Level Pressure 29.92 in    
Wind  
Wind Speed 6 mph (SW)    
Max Wind Speed 18 mph    
Max Gust Speed 29 mph    
Visibility 9 miles    
Events      
Averages and records for this station are not official NWS values.
T = Trace of Precipitation, MM = Missing Value Source: NWS Daily Summary

Daily Weather History Graph

Daily Weather History Graph

Search for Another Location

Airport or City:

Trip Planner

Search our weather history database for the weather conditions in past years. The results will help you decide how hot, cold, wet, or windy it might be!

Date:

Astronomy

Jan. 15, 2013 Rise Set
Actual Time 7:45 AM CST 4:36 PM CST
Civil Twilight 7:10 AM CST 5:11 PM CST
Nautical Twilight 6:32 AM CST 5:50 PM CST
Astronomical Twilight 5:55 AM CST 6:27 PM CST
Moon 9:28 AM CST (1/15) 9:52 PM CST (1/15)
Length of Visible Light 10h 01m
Length of Day
8h 51m
Waxing Crescent, 19% of the Moon is Illuminated
Jan 15
Waxing Crescent
Jan 18
First Quarter
Jan 26
Full
Feb 3
Last Quarter
Feb 10
New

Hourly Weather History & Observations

Time (CST) Temp. Windchill Dew Point Humidity Pressure Visibility Wind Dir Wind Speed Gust Speed Precip Events Conditions
12:01 AM -5.8 °F -14.5 °F -11.2 °F 77% 30.13 in 10.0 mi SSW 3.5 mph - N/A   Mostly Cloudy
12:21 AM -4.0 °F -12.4 °F -9.4 °F 78% 30.13 in 10.0 mi WSW 3.5 mph - N/A   Overcast
12:41 AM -4.0 °F -12.4 °F -9.4 °F 78% 30.12 in 10.0 mi West 3.5 mph - N/A   Overcast
1:01 AM -2.2 °F - -7.6 °F 78% 30.12 in 10.0 mi West 2.3 mph - N/A   Overcast
1:21 AM -0.4 °F -8.3 °F -7.6 °F 72% 30.12 in 10.0 mi SW 3.5 mph - N/A   Overcast
1:41 AM -2.2 °F - -7.6 °F 78% 30.12 in 10.0 mi SSW 2.3 mph - N/A   Overcast
2:21 AM 1.4 °F -6.2 °F -5.8 °F 72% 30.11 in 10.0 mi WSW 3.5 mph - N/A   Overcast
2:41 AM 1.4 °F - -5.8 °F 72% 30.11 in 10.0 mi SW 1.2 mph - N/A   Overcast
3:01 AM 1.4 °F - -5.8 °F 72% 30.10 in 10.0 mi WSW 1.2 mph - N/A   Overcast
3:21 AM 1.4 °F - -4.0 °F 78% 30.09 in 10.0 mi West 2.3 mph - N/A   Overcast
3:41 AM 3.2 °F -4.2 °F -4.0 °F 72% 30.08 in 5.0 mi WSW 3.5 mph - N/A   Overcast
4:01 AM 3.2 °F -7.8 °F -2.2 °F 78% 30.07 in 2.5 mi WSW 5.8 mph - N/A   Overcast
4:41 AM 3.2 °F -6.2 °F -0.4 °F 85% 30.05 in 1.0 mi WSW 4.6 mph - N/A   Overcast
5:01 AM 5.0 °F -2.1 °F -0.4 °F 78% 30.04 in 1.5 mi SW 3.5 mph - N/A   Overcast
5:21 AM 5.0 °F -4.1 °F -0.4 °F 78% 30.03 in 2.5 mi SW 4.6 mph - N/A   Overcast
5:41 AM 5.0 °F -4.1 °F -0.4 °F 78% 30.03 in 3.0 mi SW 4.6 mph - N/A   Overcast
6:01 AM 6.8 °F -2.0 °F -0.4 °F 72% 30.02 in 4.0 mi SW 4.6 mph - N/A   Overcast
6:21 AM 6.8 °F -2.0 °F 1.4 °F 79% 30.02 in 7.0 mi SW 4.6 mph - N/A   Overcast
6:41 AM 6.8 °F -3.5 °F 1.4 °F 79% 30.02 in 10.0 mi WSW 5.8 mph - N/A   Overcast
7:12 AM 6.8 °F -3.5 °F -0.4 °F 72% 30.01 in 10.0 mi West 5.8 mph - N/A   Overcast
7:21 AM 5.0 °F -5.6 °F -0.4 °F 78% 30.01 in 10.0 mi West 5.8 mph - N/A   Overcast
7:41 AM 3.2 °F -6.2 °F -0.4 °F 85% 30.01 in 10.0 mi West 4.6 mph - N/A   Mostly Cloudy
8:01 AM 5.0 °F -5.6 °F -0.4 °F 78% 30.02 in 10.0 mi WSW 5.8 mph - N/A   Mostly Cloudy
9:01 AM 5.0 °F -4.1 °F -0.4 °F 78% 30.01 in 10.0 mi WSW 4.6 mph - N/A   Clear
9:21 AM 6.8 °F -3.5 °F -0.4 °F 72% 30.01 in 7.0 mi SW 5.8 mph - N/A   Scattered Clouds
9:41 AM 6.8 °F -4.8 °F -0.4 °F 72% 30.01 in 7.0 mi WSW 6.9 mph - N/A   Mostly Cloudy
10:01 AM 6.8 °F -4.8 °F -0.4 °F 72% 30.00 in 10.0 mi SSW 6.9 mph - N/A   Scattered Clouds
10:21 AM 8.6 °F -1.3 °F -0.4 °F 67% 30.00 in 10.0 mi SSW 5.8 mph - N/A   Scattered Clouds
10:41 AM 8.6 °F 0.1 °F 1.4 °F 73% 30.00 in 10.0 mi SSW 4.6 mph - N/A   Scattered Clouds
11:01 AM 10.4 °F 2.2 °F 1.4 °F 67% 29.99 in 10.0 mi SSW 4.6 mph - N/A   Scattered Clouds
11:21 AM 10.4 °F 0.8 °F 1.4 °F 67% 29.98 in 10.0 mi SSW 5.8 mph - N/A   Clear
11:41 AM 12.2 °F 1.7 °F 1.4 °F 62% 29.97 in 10.0 mi SW 6.9 mph - N/A   Clear
12:21 PM 14.0 °F 3.9 °F 1.4 °F 57% 29.95 in 10.0 mi SSW 6.9 mph - N/A   Clear
12:41 PM 15.8 °F 6.1 °F -0.4 °F 49% 29.94 in 10.0 mi SSW 6.9 mph - N/A   Clear
1:21 PM 17.6 °F 5.7 °F -0.4 °F 45% 29.92 in 10.0 mi South 10.4 mph - N/A   Clear
1:41 PM 15.8 °F 3.4 °F 3.2 °F 58% 29.92 in 10.0 mi South 10.4 mph - N/A   Clear
2:01 PM 15.8 °F 3.4 °F 1.4 °F 53% 29.91 in 10.0 mi South 10.4 mph 19.6 mph N/A   Scattered Clouds
2:21 PM 15.8 °F 5.1 °F -0.4 °F 49% 29.91 in 10.0 mi South 8.1 mph 16.1 mph N/A   Scattered Clouds
2:41 PM 17.6 °F 5.0 °F 1.4 °F 49% 29.90 in 10.0 mi South 11.5 mph 18.4 mph N/A   Clear
3:01 PM 15.8 °F 2.1 °F 1.4 °F 53% 29.89 in 10.0 mi South 12.7 mph 17.3 mph N/A   Clear
3:21 PM 15.8 °F 2.7 °F 3.2 °F 58% 29.88 in 10.0 mi South 11.5 mph - N/A   Clear
3:41 PM 15.8 °F 3.4 °F 5.0 °F 62% 29.87 in 10.0 mi South 10.4 mph 17.3 mph N/A   Clear
4:01 PM 15.8 °F 2.7 °F 8.6 °F 73% 29.86 in 10.0 mi South 11.5 mph 18.4 mph N/A   Clear
4:21 PM 15.8 °F - 8.6 °F 73% 29.85 in 10.0 mi North - - N/A   Mostly Cloudy
4:41 PM 15.8 °F - 8.6 °F 73% 29.84 in 10.0 mi North - - N/A   Mostly Cloudy
5:01 PM 15.8 °F 2.7 °F 8.6 °F 73% 29.84 in 10.0 mi SSW 11.5 mph 21.9 mph N/A   Scattered Clouds
5:21 PM 15.8 °F 4.2 °F 10.4 °F 79% 29.83 in 10.0 mi SSW 9.2 mph 16.1 mph N/A   Clear
5:41 PM 15.8 °F 3.4 °F 10.4 °F 79% 29.82 in 10.0 mi SSW 10.4 mph 17.3 mph N/A   Clear
6:01 PM 15.8 °F 5.1 °F 10.4 °F 79% 29.81 in 10.0 mi SSW 8.1 mph - N/A   Clear
6:21 PM 15.8 °F 4.2 °F 10.4 °F 79% 29.79 in 10.0 mi SSW 9.2 mph - N/A   Clear
6:41 PM 15.8 °F 5.1 °F 10.4 °F 79% 29.78 in 10.0 mi SSW 8.1 mph 16.1 mph N/A   Clear
7:01 PM 17.6 °F 6.4 °F 10.4 °F 73% 29.77 in 10.0 mi SSW 9.2 mph 17.3 mph N/A   Clear
7:21 PM 17.6 °F 5.0 °F 10.4 °F 73% 29.76 in 10.0 mi SSW 11.5 mph 19.6 mph N/A   Clear
7:41 PM 17.6 °F 5.7 °F 10.4 °F 73% 29.75 in 10.0 mi SSW 10.4 mph 20.7 mph N/A   Clear
8:01 PM 19.4 °F 5.5 °F 10.4 °F 68% 29.73 in 10.0 mi SSW 15.0 mph 21.9 mph N/A   Clear
8:21 PM 19.4 °F 5.5 °F 8.6 °F 63% 29.72 in 10.0 mi SSW 15.0 mph 19.6 mph N/A   Clear
8:41 PM 19.4 °F 7.9 °F 10.4 °F 68% 29.71 in 10.0 mi SSW 10.4 mph 20.7 mph N/A   Clear
9:01 PM 19.4 °F 4.5 °F 8.6 °F 63% 29.69 in 10.0 mi SSW 17.3 mph 28.8 mph N/A   Clear
9:21 PM 19.4 °F 4.1 °F 6.8 °F 58% 29.67 in 10.0 mi SSW 18.4 mph 27.6 mph N/A   Clear
9:41 PM 19.4 °F 5.0 °F 8.6 °F 63% 29.66 in 10.0 mi SSW 16.1 mph 27.6 mph N/A   Clear
10:01 PM 19.4 °F 5.0 °F 8.6 °F 63% 29.65 in 10.0 mi SSW 16.1 mph 26.5 mph N/A   Clear
10:41 PM 19.4 °F 7.2 °F 10.4 °F 68% 29.62 in 10.0 mi SSW 11.5 mph 20.7 mph N/A   Clear
11:01 PM 19.4 °F 5.0 °F 10.4 °F 68% 29.61 in 10.0 mi SSW 16.1 mph 25.3 mph N/A   Clear
11:41 PM 19.4 °F 5.0 °F 8.6 °F 63% 29.58 in 10.0 mi SSW 16.1 mph 27.6 mph N/A   Scattered Clouds